| time (UTC) | temp F | wind direction | speed MPH | gust MPH | rain 1hr in | rain 24hr in | rain mn in | humidity % | barometer mb |
| 20260504081616 | 43 | 351 | 0.0 | 0.0 | 0.00 | 0.03 | 0.03 | 99 | |
| 20260504081112 | 44 | 0 | 0.0 | 0.0 | 0.00 | 0.03 | 0.03 | 99 | |
| 20260504080609 | 44 | 1 | 0.0 | 0.0 | 0.00 | 0.03 | 0.03 | 99 | |
| 20260504080105 | 44 | 351 | 0.0 | 0.0 | 0.00 | 0.03 | 0.03 | 99 | |
| 20260504050415 | 45 | 351 | 0.0 | 0.0 | 0.00 | 0.03 | 0.03 | 99 | |
| 20260504045912 | 45 | 317 | 0.0 | 1.0 | 0.00 | 0.03 | 0.03 | 99 | |
| 20260504045408 | 45 | 12 | 0.0 | 0.0 | 0.00 | 0.03 | 0.03 | 98 | |
| 20260504044905 | 45 | 14 | 0.0 | 1.0 | 0.00 | 0.03 | 0.03 | 98 | |
| 20260504044402 | 45 | 9 | 0.0 | 1.0 | 0.05 | 0.03 | 0.03 | 97 | |
| 20260504043900 | 45 | 3 | 0.0 | 1.0 | 0.09 | 0.03 | 0.03 | 96 | |
| 20260504043356 | 46 | 39 | 1.0 | 1.0 | 0.12 | 0.02 | 0.02 | 95 | |
| 20260504042854 | 46 | 19 | 0.0 | 1.0 | 0.07 | 0.01 | 0.01 | 92 | |
| 20260504042350 | 46 | 280 | 1.0 | 3.0 | 0.00 | 0.00 | 0.00 | 89 | |
| 20260504041846 | 46 | 332 | 0.0 | 0.0 | 0.00 | 0.00 | 0.00 | 85 | |
| 20260504041343 | 46 | 315 | 0.0 | 1.0 | 0.00 | 0.00 | 0.00 | 85 | |
| 20260504040839 | 46 | 355 | 0.0 | 1.0 | 0.00 | 0.00 | 0.00 | 84 | |
| 20260504040337 | 46 | 3 | 0.0 | 0.0 | 0.00 | 0.00 | 0.00 | 84 | |
| 20260504035832 | 46 | 352 | 0.0 | 1.0 | 0.00 | 0.00 | 0.00 | 84 | |
| 20260504035330 | 46 | 348 | 0.0 | 0.0 | 0.00 | 0.00 | 0.00 | 84 | |
| 20260504034827 | 46 | 346 | 0.0 | 0.0 | 0.00 | 0.00 | 0.00 | 84 | |
| 20260504034324 | 46 | 7 | 0.0 | 0.0 | 0.00 | 0.00 | 0.00 | 83 | |
| 20260504033821 | 46 | 7 | 0.0 | 0.0 | 0.00 | 0.00 | 0.00 | 83 | |
| 20260504033319 | 46 | 9 | 0.0 | 0.0 | 0.00 | 0.00 | 0.00 | 83 | |
| 20260504032815 | 46 | 2 | 0.0 | 0.0 | 0.00 | 0.00 | 0.00 | 82 | |
| 20260504032313 | 46 | 358 | 0.0 | 0.0 | 0.00 | 0.00 | 0.00 | 82 | |
| 20260504031810 | 46 | 13 | 0.0 | 0.0 | 0.00 | 0.00 | 0.00 | 81 | |
| 20260504031307 | 46 | 10 | 0.0 | 0.0 | 0.00 | 0.00 | 0.00 | 81 | |
| 20260504030803 | 46 | 9 | 0.0 | 0.0 | 0.00 | 0.00 | 0.00 | 81 | |
| 20260504030300 | 46 | 5 | 0.0 | 0.0 | 0.00 | 0.00 | 0.00 | 80 | |
| 20260504025756 | 46 | 7 | 0.0 | 0.0 | 0.00 | 0.00 | 0.00 | 80 | |
| 20260504025253 | 46 | 5 | 0.0 | 0.0 | 0.00 | 0.00 | 0.00 | 80 | |
| 20260504024750 | 46 | 4 | 0.0 | 0.0 | 0.00 | 0.00 | 0.00 | 80 | |
| 20260504024247 | 46 | 5 | 0.0 | 0.0 | 0.00 | 0.00 | 0.00 | 80 | |
| 20260504023744 | 45 | 2 | 0.0 | 0.0 | 0.00 | 0.00 | 0.00 | 81 | |
| 20260504023240 | 45 | 2 | 0.0 | 0.0 | 0.00 | 0.00 | 0.00 | 80 | |
| 20260504022736 | 46 | 4 | 0.0 | 0.0 | 0.00 | 0.00 | 0.00 | 79 | |
| 20260504022232 | 46 | 7 | 0.0 | 0.0 | 0.00 | 0.00 | 0.00 | 79 | |
| 20260504021730 | 46 | 357 | 0.0 | 0.0 | 0.00 | 0.00 | 0.00 | 80 | |
| 20260504021227 | 46 | 3 | 0.0 | 0.0 | 0.00 | 0.00 | 0.00 | 78 | |
| 20260504020723 | 46 | 12 | 0.0 | 0.0 | 0.00 | 0.00 | 0.00 | 77 | |
| 20260504020220 | 46 | 1 | 0.0 | 0.0 | 0.00 | 0.00 | 0.00 | 76 | |
| 20260504015716 | 46 | 13 | 0.0 | 0.0 | 0.00 | 0.00 | 0.00 | 76 | |
| 20260504015213 | 46 | 10 | 0.0 | 0.0 | 0.00 | 0.00 | 0.00 | 75 | |
| 20260504014708 | 46 | 13 | 0.0 | 0.0 | 0.00 | 0.00 | 0.00 | 76 | |
| 20260504014206 | 46 | 3 | 0.0 | 0.0 | 0.00 | 0.00 | 0.00 | 76 | |
| 20260504013703 | 46 | 4 | 0.0 | 0.0 | 0.00 | 0.00 | 0.00 | 75 | |
| 20260504013200 | 47 | 13 | 0.0 | 0.0 | 0.00 | 0.00 | 0.00 | 74 | |
| 20260504012657 | 47 | 20 | 0.0 | 0.0 | 0.00 | 0.00 | 0.00 | 73 | |
| 20260504012155 | 47 | 6 | 0.0 | 0.0 | 0.00 | 0.00 | 0.00 | 74 | |
| 20260504011652 | 47 | 359 | 0.0 | 0.0 | 0.00 | 0.00 | 0.00 | 73 | |
| 20260504011148 | 48 | 0 | 0.0 | 0.0 | 0.00 | 0.00 | 0.00 | 72 | |
| 20260504010644 | 48 | 10 | 0.0 | 0.0 | 0.00 | 0.00 | 0.00 | 70 | |
| 20260504010140 | 49 | 5 | 0.0 | 0.0 | 0.00 | 0.00 | 0.00 | 68 | |
| 20260504005637 | 49 | 8 | 0.0 | 0.0 | 0.00 | 0.00 | 0.00 | 67 | |
| 20260504005133 | 49 | 0 | 0.0 | 0.0 | 0.00 | 0.00 | 0.00 | 67 | |
| 20260504004632 | 50 | 12 | 0.0 | 0.0 | 0.00 | 0.00 | 0.00 | 66 | |
| 20260504004129 | 50 | 3 | 0.0 | 0.0 | 0.00 | 0.00 | 0.00 | 66 | |
| 20260504003625 | 51 | 7 | 0.0 | 0.0 | 0.00 | 0.00 | 0.00 | 64 | |
| 20260504003122 | 51 | 14 | 0.0 | 0.0 | 0.00 | 0.00 | 0.00 | 63 | |
| 20260504002618 | 51 | 352 | 0.0 | 0.0 | 0.00 | 0.00 | 0.00 | 64 | |
| 20260504002116 | 52 | 353 | 0.0 | 0.0 | 0.00 | 0.00 | 0.00 | 63 | |
| 20260504001614 | 53 | 351 | 0.0 | 0.0 | 0.00 | 0.00 | 0.00 | 61 | |
| 20260504001109 | 53 | 352 | 0.0 | 0.0 | 0.00 | 0.00 | 0.00 | 61 | |
| 20260504000607 | 53 | 351 | 0.0 | 0.0 | 0.00 | 0.00 | 0.00 | 59 | |
| 20260504000104 | 54 | 351 | 0.0 | 0.0 | 0.00 | 0.00 | 0.00 | 58 | |
| 20260503235603 | 55 | 351 | 0.0 | 0.0 | 0.00 | 0.00 | 0.00 | 57 | |
| 20260503235059 | 56 | 351 | 0.0 | 0.0 | 0.00 | 0.00 | 0.00 | 57 | |
| 20260503234557 | 56 | 352 | 0.0 | 0.0 | 0.00 | 0.00 | 0.00 | 58 | |
| 20260503234055 | 57 | 295 | 1.0 | 1.0 | 0.00 | 0.00 | 0.00 | 52 | |
| 20260503233551 | 57 | 314 | 0.0 | 0.0 | 0.00 | 0.00 | 0.00 | 51 | |
| 20260503233047 | 58 | 314 | 0.0 | 0.0 | 0.00 | 0.00 | 0.00 | 49 | |
| 20260503232544 | 59 | 325 | 0.0 | 1.0 | 0.00 | 0.00 | 0.00 | 47 | |
| 20260503232041 | 59 | 323 | 0.0 | 1.0 | 0.00 | 0.00 | 0.00 | 49 | |
| 20260503231539 | 60 | 30 | 0.0 | 2.0 | 0.00 | 0.00 | 0.00 | 38 | |
| 20260503231036 | 60 | 357 | 0.0 | 0.0 | 0.00 | 0.00 | 0.00 | 44 | |
| 20260503230532 | 60 | 343 | 0.0 | 1.0 | 0.00 | 0.00 | 0.00 | 48 | |
| 20260503230030 | 60 | 283 | 1.0 | 1.0 | 0.00 | 0.00 | 0.00 | 43 | |
| 20260503225527 | 60 | 347 | 1.0 | 1.0 | 0.00 | 0.00 | 0.00 | 49 | |
| 20260503225021 | 61 | 348 | 0.0 | 1.0 | 0.00 | 0.00 | 0.00 | 39 | |
| 20260503224519 | 61 | 259 | 0.0 | 1.0 | 0.00 | 0.00 | 0.00 | 47 | |
| 20260503224011 | 62 | 322 | 1.0 | 1.0 | 0.00 | 0.00 | 0.00 | 42 | |
| 20260503223509 | 61 | 352 | 0.0 | 2.0 | 0.00 | 0.00 | 0.00 | 36 | |
| 20260503223005 | 61 | 3 | 0.0 | 1.0 | 0.00 | 0.00 | 0.00 | 37 | |
| 20260503222503 | 62 | 23 | 0.0 | 0.0 | 0.00 | 0.00 | 0.00 | 42 | |
| 20260503222001 | 62 | 6 | 2.0 | 6.0 | 0.00 | 0.00 | 0.00 | 35 | |
| 20260503221458 | 62 | 338 | 0.0 | 0.0 | 0.00 | 0.00 | 0.00 | 37 | |
| 20260503220950 | 62 | 319 | 1.0 | 1.0 | 0.00 | 0.00 | 0.00 | 42 | |
| 20260503220446 | 61 | 342 | 0.0 | 2.0 | 0.00 | 0.00 | 0.00 | 38 | |
| 20260503215943 | 62 | 315 | 3.0 | 5.0 | 0.00 | 0.00 | 0.00 | 45 | |
| 20260503215439 | 62 | 50 | 1.0 | 2.0 | 0.00 | 0.00 | 0.00 | 34 | |
| 20260503214937 | 62 | 325 | 0.0 | 2.0 | 0.00 | 0.00 | 0.00 | 37 | |
| 20260503214435 | 63 | 337 | 0.0 | 2.0 | 0.00 | 0.00 | 0.00 | 35 | |
| 20260503213932 | 64 | 306 | 1.0 | 2.0 | 0.00 | 0.00 | 0.00 | 34 | |
| 20260503213430 | 62 | 7 | 2.0 | 3.0 | 0.00 | 0.00 | 0.00 | 33 | |
| 20260503212926 | 63 | 337 | 3.0 | 3.0 | 0.00 | 0.00 | 0.00 | 34 | |
| 20260503212424 | 62 | 329 | 2.0 | 3.0 | 0.00 | 0.00 | 0.00 | 36 | |
| 20260503211921 | 63 | 329 | 0.0 | 5.0 | 0.00 | 0.00 | 0.00 | 38 | |
| 20260503211418 | 63 | 300 | 1.0 | 5.0 | 0.00 | 0.00 | 0.00 | 34 | |
| 20260503210913 | 62 | 306 | 1.0 | 2.0 | 0.00 | 0.00 | 0.00 | 34 | |
| 20260503210410 | 63 | 17 | 1.0 | 3.0 | 0.00 | 0.00 | 0.00 | 34 | |
| 20260503205905 | 63 | 336 | 4.0 | 6.0 | 0.00 | 0.00 | 0.00 | 33 | |
| 20260503205403 | 63 | 358 | 0.0 | 3.0 | 0.00 | 0.00 | 0.00 | 36 | |
| 20260503204858 | 63 | 319 | 1.0 | 2.0 | 0.00 | 0.00 | 0.00 | 36 | |
| 20260503204356 | 62 | 305 | 0.0 | 3.0 | 0.00 | 0.00 | 0.00 | 40 | |
| 20260503203853 | 63 | 323 | 0.0 | 3.0 | 0.00 | 0.00 | 0.00 | 37 | |
| 20260503203350 | 62 | 36 | 0.0 | 1.0 | 0.00 | 0.00 | 0.00 | 36 | |
| 20260503202847 | 63 | 318 | 1.0 | 2.0 | 0.00 | 0.00 | 0.00 | 40 | |
| 20260503202345 | 62 | 321 | 2.0 | 2.0 | 0.00 | 0.00 | 0.00 | 36 | |
| 20260503201843 | 63 | 308 | 2.0 | 3.0 | 0.00 | 0.00 | 0.00 | 35 | |
| 20260503201340 | 63 | 305 | 2.0 | 2.0 | 0.00 | 0.00 | 0.00 | 33 | |
| 20260503200838 | 62 | 325 | 2.0 | 3.0 | 0.00 | 0.00 | 0.00 | 36 | |
| 20260503200333 | 63 | 314 | 1.0 | 2.0 | 0.00 | 0.00 | 0.00 | 35 | |
| 20260503195831 | 62 | 279 | 2.0 | 2.0 | 0.00 | 0.00 | 0.00 | 35 | |
| 20260503195327 | 62 | 313 | 1.0 | 2.0 | 0.00 | 0.00 | 0.00 | 36 | |
| 20260503194825 | 61 | 43 | 4.0 | 6.0 | 0.00 | 0.00 | 0.00 | 35 | |
| 20260503194320 | 60 | 342 | 2.0 | 5.0 | 0.00 | 0.00 | 0.00 | 39 | |
| 20260503193816 | 62 | 24 | 2.0 | 6.0 | 0.00 | 0.00 | 0.00 | 34 | |
| 20260503193313 | 60 | 52 | 3.0 | 5.0 | 0.00 | 0.00 | 0.00 | 36 | |
| 20260503192809 | 61 | 321 | 1.0 | 3.0 | 0.00 | 0.00 | 0.00 | 41 | |
| 20260503192305 | 60 | 321 | 1.0 | 2.0 | 0.00 | 0.00 | 0.00 | 35 | |
| 20260503191801 | 60 | 341 | 4.0 | 5.0 | 0.00 | 0.00 | 0.00 | 39 | |
| 20260503191258 | 60 | 315 | 1.0 | 3.0 | 0.00 | 0.00 | 0.00 | 39 | |
| 20260503190754 | 61 | 190 | 1.0 | 2.0 | 0.00 | 0.00 | 0.00 | 38 | |
| 20260503190251 | 59 | 334 | 2.0 | 7.0 | 0.00 | 0.00 | 0.00 | 42 | |
| 20260503185749 | 60 | 273 | 1.0 | 2.0 | 0.00 | 0.00 | 0.00 | 37 | |
| 20260503185244 | 60 | 299 | 3.0 | 6.0 | 0.00 | 0.00 | 0.00 | 38 | |
| 20260503184739 | 60 | 337 | 2.0 | 5.0 | 0.00 | 0.00 | 0.00 | 36 | |
| 20260503184235 | 61 | 71 | 3.0 | 5.0 | 0.00 | 0.00 | 0.00 | 37 | |
| 20260503183732 | 59 | 19 | 1.0 | 2.0 | 0.00 | 0.00 | 0.00 | 37 | |
| 20260503183229 | 60 | 337 | 1.0 | 3.0 | 0.00 | 0.00 | 0.00 | 37 | |
| 20260503182727 | 59 | 338 | 3.0 | 3.0 | 0.00 | 0.00 | 0.00 | 38 | |
| 20260503182226 | 60 | 356 | 6.0 | 6.0 | 0.00 | 0.00 | 0.00 | 40 | |
| 20260503181722 | 60 | 24 | 1.0 | 5.0 | 0.00 | 0.00 | 0.00 | 38 | |
| 20260503181219 | 59 | 318 | 1.0 | 5.0 | 0.00 | 0.00 | 0.00 | 40 | |
| 20260503180715 | 60 | 42 | 3.0 | 5.0 | 0.00 | 0.00 | 0.00 | 36 | |
| 20260503180214 | 58 | 213 | 1.0 | 5.0 | 0.00 | 0.00 | 0.00 | 35 | |
| 20260503175710 | 58 | 68 | 3.0 | 3.0 | 0.00 | 0.00 | 0.00 | 38 | |
| 20260503175208 | 59 | 359 | 4.0 | 5.0 | 0.00 | 0.00 | 0.00 | 40 | |
| 20260503174703 | 59 | 24 | 1.0 | 6.0 | 0.00 | 0.00 | 0.00 | 41 | |
| 20260503174201 | 59 | 346 | 2.0 | 3.0 | 0.00 | 0.00 | 0.00 | 39 | |
| 20260503173656 | 58 | 329 | 0.0 | 2.0 | 0.00 | 0.00 | 0.00 | 40 | |
| 20260503173153 | 58 | 0 | 3.0 | 5.0 | 0.00 | 0.00 | 0.00 | 40 | |
| 20260503172650 | 58 | 6 | 1.0 | 2.0 | 0.00 | 0.00 | 0.00 | 42 | |
| 20260503172147 | 57 | 38 | 4.0 | 5.0 | 0.00 | 0.00 | 0.00 | 44 | |
| 20260503171643 | 59 | 49 | 2.0 | 3.0 | 0.00 | 0.00 | 0.00 | 41 | |
| 20260503171141 | 59 | 254 | 0.0 | 2.0 | 0.00 | 0.00 | 0.00 | 39 | |
| 20260503170638 | 57 | 254 | 2.0 | 2.0 | 0.00 | 0.00 | 0.00 | 38 | |
| 20260503170135 | 58 | 77 | 1.0 | 2.0 | 0.00 | 0.00 | 0.00 | 41 | |
| 20260503150526 | 54 | 207 | 2.0 | 2.0 | 0.00 | 0.00 | 0.00 | 49 | |
| 20260503131418 | 47 | 58 | 1.0 | 2.0 | 0.00 | 0.00 | 0.00 | 72 | |
| 20260503130915 | 46 | 33 | 0.0 | 2.0 | 0.00 | 0.00 | 0.00 | 76 | |
| 20260503130413 | 47 | 17 | 1.0 | 2.0 | 0.00 | 0.00 | 0.00 | 76 | |
| 20260503110812 | 29 | 4 | 0.0 | 0.0 | 0.00 | 0.00 | 0.00 | 99 | |
| 20260503110309 | 29 | 4 | 0.0 | 0.0 | 0.00 | 0.00 | 0.00 | 99 | |
| 20260503100235 | 30 | 358 | 0.0 | 0.0 | 0.00 | 0.00 | 0.00 | 99 | |
| 20260503090154 | 31 | 358 | 0.0 | 0.0 | 0.00 | 0.00 | 0.00 | 99 |